Погода в Сенно

Беларусь     54°48′46″N   29°42′22″E
темп.,
°C
ветер,
м/с
пор.,
м/с
влажн.,
%
обл.,
%
осадки,
мм/ч
давл.,
гПа
погр.,
м
24 октября, вс
вс2400:00+4зсз6128479 0.1 1014638
03:00+2зсз6129094 0.1 1017617
06:00+3сз61077100 0.0 1019910
09:00+2сз6983100 0.1 1022812
12:00+2ссз6873100 0.1 10251091
15:00+4сз5855100 0.1 10261320
18:00+2сз486499 0.0 1028222
21:000сз35755 0.0 1029114
25 октября, пн
пн2500:00−1зсз22818 0.0 103019
03:00−1зюз22775 0.0 103121
06:00−1юз35875 0.0 103173
09:000ююз489117 0.0 1031188
12:00+5юз68655 0.0 1030511
15:00+7юз69595 0.0 1028750
18:00+4ююз411745 0.0 1027239
21:00+3юз6147710 0.0 1027318
26 октября, вт
вт2600:00+2юз51478100 0.0 1026335
03:00+2ююз61475100 0.0 1025316
06:00+2ююз61572100 0.0 1024323
09:00+2ююз6157028 0.0 1023350
12:00+7юз7135584 0.0 1022487
15:00+8юз6115491 0.0 1020577
18:00+5ююз512665 0.0 1020302
21:00+4юз512735 0.0 1020258
27 октября, ср
ср2700:00+4юз51174100 0.0 1019255
03:00+3юз51180100 0.0 1018208
06:00+5юз51178100 0.0 1017308
09:00+5зюз4109498 1.7 1018304
12:00+7з5984100 0.1 1019756
15:00+9з686998 0.1 10191068
18:00+8зсз3776100 0.0 1020240
21:00+7зюз5983100 0.0 1021335
28 октября, чт
чт2800:00+7юз4983100 0.1 1021243
03:00+5зюз499541 0.1 1022199
06:00+5юз4109496 0.0 1022207
09:00+6юз61289100 0.1 1021371
12:00+7юз61393100 1.0 1021480
15:00+10зюз61288100 1.4 1019680
18:00+10зюз71493100 2.0 1019825
21:00+10зсз61292100 3.9 1020604